Regional Weather Roundup
Issued by NWS Albany, NY

Home | Current Version | Previous Version | Graphics & Text | Print | Product List | Glossary On
Versions: 1 2 3 4 5 6 7 8 9 10 11 12 13 14 15 16 17 18 19 20 21 22 23 24 25 26 27
000
ASUS41 KALY 191310
RWRALY

NEW YORK STATE HOURLY WEATHER ROUNDUP
NATIONAL WEATHER SERVICE ALBANY NY
900 AM EDT SAT APR 19 2014

NOTE: "FAIR" INDICATES FEW OR NO CLOUDS BELOW 12,000 FEET WITH NO
SIGNIFICANT WEATHER AND/OR NO OBSTRUCTIONS TO VISIBILITY.

NYZ032-033-038>043-046>054-057>066-NYZ062>081-191400-
EAST


CITY           SKY/WX    TMP DP  RH WIND       PRES   REMARKS
ALBANY         MOSUNNY   47  33  58 NW13      30.27R
GLENS FALLS    SUNNY     50  32  50 NW5       30.25S
POUGHKEEPSIE   MOSUNNY   48  34  58 CALM      30.27R
MONTGOMERY     MOSUNNY   51  33  50 NW13      30.27R
WHITE PLAINS   SUNNY     50  36  58 NW10      30.25R
ISLIP          MOSUNNY   49  36  61 N7        30.24S
NEW YORK CITY  PTSUNNY   49  36  61 NW10      30.26S
CENTRAL PARK   SUNNY     49  35  58 CALM      30.29R
$$

NYZ005>009-017-018-044>046-055-056-191400-
CENTRAL


CITY           SKY/WX    TMP DP  RH WIND       PRES   REMARKS
FULTON         PTSUNNY   40  33  76 NW13G20   30.37R WCI  32
SYRACUSE       CLOUDY    39  34  81 NW8       30.37R WCI  34
ROME           CLOUDY    38  32  79 W8        30.34R WCI  32
ELMIRA         SUNNY     44  30  57 NE8       30.34R
BINGHAMTON     SUNNY     39  29  67 NW7       30.29R WCI  34
MONTICELLO     MOSUNNY   45  34  65 NW9       30.28S
$$

NYZ026>034-041>043-191400-
NORTH


CITY           SKY/WX    TMP DP  RH WIND       PRES   REMARKS
WATERTOWN      CLOUDY    41  32  70 N12       30.38R
FORT DRUM      NOT AVBL
MASSENA        CLOUDY    41  34  76 NW9       30.36R
SARANAC LAKE   MIX PCPN  34  33  96 VRB5      30.24R WCI  30
PLATTSBURGH    LGT RAIN  42  39  89 NW8       30.28R
$$

NYZ001>004-010>016-019>021-191400-
WEST


CITY           SKY/WX    TMP DP  RH WIND       PRES   REMARKS
NIAGARA FALLS  MOSUNNY   39  31  72 N14       30.42R WCI  31
BUFFALO        MOSUNNY   40  31  70 N9        30.41R WCI  34
DUNKIRK        SUNNY     37  29  72 N9        30.43R WCI  30
JAMESTOWN      SUNNY     36  27  69 N7        30.37R WCI  30
WELLSVILLE     SUNNY     38  27  64 N9        30.34R WCI  31
ROCHESTER      MOSUNNY   41  32  70 N10       30.40R
PENN YAN       MOSUNNY   41  31  67 NW9       30.36R
$$

             KEY
       WCI = WIND CHILL INDEX
       VSB = VISIBILITY
       HX  = HEAT INDEX
$$



USA.gov is the U.S. government's official web portal to all federal, state and local government web resources and services.